Location: Katowice
(50.2611°N, 19.0242°E)
Time: 17:33:41
(UTC+02:00)

Altair - Visible Passes

Search period start: 22 August 2019 00:00
Search period end: 01 September 2019 00:00
Orbit: 1501 x 1683 km, 47.2° (Epoch: 21 August)

Date Brightness Start Highest point End Pass type
(mag) Time Alt. Az. Time Alt. Az. Time Alt. Az.
22 Aug 9.3 01:22:34 10° SE 01:23:08 10° ESE 01:23:43 10° ESE visible
22 Aug 8.3 03:20:13 21° S 03:25:37 36° SE 03:33:55 10° E visible
23 Aug 8.4 02:56:22 24° S 03:00:32 34° SE 03:08:43 10° E visible
23 Aug 7.7 04:54:36 10° WSW 05:04:12 65° SSE 05:13:27 10° E visible
24 Aug 8.4 02:32:30 27° SSE 02:35:29 32° SE 02:43:30 10° E visible
24 Aug 7.7 04:30:30 14° WSW 04:39:04 63° SSE 04:48:19 10° E visible
25 Aug 8.4 02:08:36 28° SSE 02:10:25 29° SE 02:18:16 10° E visible
25 Aug 7.7 04:06:37 19° SW 04:13:56 61° SSE 04:23:11 10° E visible
26 Aug 8.5 01:44:40 27° SE 01:45:22 28° SE 01:53:01 10° E visible
26 Aug 7.7 03:42:40 25° SW 03:48:48 59° SSE 03:58:02 10° E visible
27 Aug 8.6 01:20:43 26° SE 01:20:43 26° SE 01:27:44 10° E visible
27 Aug 7.7 03:18:43 31° SW 03:23:40 57° SSE 03:32:53 10° E visible
28 Aug 8.7 00:56:45 23° ESE 00:56:45 23° ESE 01:02:25 10° E visible
28 Aug 7.7 02:54:45 37° SSW 02:58:32 54° SSE 03:07:44 10° E visible
28 Aug 7.6 04:53:02 10° W 05:02:48 75° S 05:12:11 10° E visible
29 Aug 8.9 00:32:45 20° ESE 00:32:45 20° ESE 00:37:04 10° E visible
29 Aug 7.7 02:30:45 43° SSW 02:33:25 52° SSE 02:42:35 10° E visible
29 Aug 7.6 04:28:45 13° WSW 04:37:38 75° S 04:47:03 10° E visible
30 Aug 9.0 00:08:44 17° ESE 00:08:44 17° ESE 00:11:42 10° E visible
30 Aug 7.7 02:06:44 46° S 02:08:18 50° SSE 02:17:26 10° E visible
30 Aug 7.5 04:04:44 18° WSW 04:12:29 74° S 04:21:55 10° E visible
30 Aug 9.2 23:44:43 13° E 23:44:43 13° E 23:46:16 10° E visible
31 Aug 7.7 01:42:43 47° SSE 01:43:10 48° SSE 01:52:16 10° E visible
31 Aug 7.5 03:40:42 24° WSW 03:47:19 74° S 03:56:47 10° E visible
31 Aug 9.3 23:20:40 10° E 23:20:40 10° E 23:20:45 10° E visible
